Lago Vista, TX

11:36 PM CDT on July 25, 2017 (GMT -0500)
Lago Vista

Weather History for KRYW - February, 2014

Change the Weather History Date:

Saturday, February 15, 2014

  Actual Average (KGTU) Record (KGTU)
Temperature  
Mean Temperature 60 °F -  
Max Temperature 73 °F 62 °F 82 °F (2005)
Min Temperature 46 °F 41 °F 24 °F (2007)
Degree Days  
Heating Degree Days 6    
Growing Degree Days 10 (Base 50)    
Moisture  
Dew Point 32 °F    
Average Humidity 37    
Maximum Humidity 82    
Minimum Humidity 23    
Precipitation  
Precipitation 0.00 in - - ()
Sea Level Pressure  
Sea Level Pressure 30.09 in    
Wind  
Wind Speed 8 mph (SE)    
Max Wind Speed 15 mph    
Max Gust Speed 23 mph    
Visibility 10 miles    
Events      
Averages and records for this station are not official NWS values.
T = Trace of Precipitation, MM = Missing Value Source: NWS Daily Summary

Daily Weather History Graph

Daily Weather History Graph

Search for Another Location

Airport or City:

Trip Planner

Search our weather history database for the weather conditions in past years. The results will help you decide how hot, cold, wet, or windy it might be!

Date:

Astronomy

Feb. 15, 2014 Rise Set
Actual Time 7:12 AM CST 6:20 PM CST
Civil Twilight 6:47 AM CST 6:44 PM CST
Nautical Twilight 6:19 AM CST 7:12 PM CST
Astronomical Twilight 5:51 AM CST 7:40 PM CST
Moon 7:13 PM CST (2/15) 7:17 AM CST (2/15)
Length of Visible Light 11h 57m
Length of Day
11h 07m
Waxing Gibbous, 99% of the Moon is Illuminated
Feb 15
Waxing Gibbous
Feb 22
Last Quarter
Mar 1
New
Mar 8
First Quarter
Mar 16
Full

Hourly Weather History & Observations

Time (CST) Temp. Windchill Dew Point Humidity Pressure Visibility Wind Dir Wind Speed Gust Speed Precip Events Conditions
12:15 AM 54.5 °F - 24.4 °F 31% 30.09 in 10.0 mi NE 5.8 mph - N/A   Clear
12:35 AM 53.8 °F - 23.2 °F 30% 30.09 in 10.0 mi NE 6.9 mph - N/A   Clear
12:55 AM 53.6 °F - 23.0 °F 30% 30.09 in 10.0 mi NE 9.2 mph - N/A   Clear
1:15 AM 53.1 °F - 22.8 °F 31% 30.10 in 10.0 mi NE 5.8 mph - N/A   Clear
1:35 AM 52.7 °F - 22.6 °F 31% 30.12 in 10.0 mi NE 8.1 mph - N/A   Clear
1:55 AM 52.7 °F - 22.1 °F 30% 30.12 in 10.0 mi NE 9.2 mph - N/A   Clear
2:15 AM 52.9 °F - 22.1 °F 30% 30.12 in 10.0 mi NE 6.9 mph - N/A   Clear
2:35 AM 52.5 °F - 22.1 °F 31% 30.12 in 10.0 mi NE 8.1 mph - N/A   Clear
2:55 AM 51.8 °F - 22.5 °F 32% 30.12 in 10.0 mi NE 10.4 mph - N/A   Clear
3:15 AM 51.3 °F - 22.6 °F 33% 30.12 in 10.0 mi NE 5.8 mph - N/A   Clear
3:35 AM 50.0 °F - 22.6 °F 34% 30.11 in 10.0 mi ENE 5.8 mph - N/A   Clear
3:55 AM 49.8 °F - 22.8 °F 35% 30.11 in 10.0 mi NE 5.8 mph - N/A   Clear
4:15 AM 50.0 °F - 22.8 °F 34% 30.11 in 10.0 mi ENE 5.8 mph - N/A   Clear
4:35 AM 49.5 °F - 23.0 °F 35% 30.12 in 10.0 mi ENE 5.8 mph - N/A   Clear
4:55 AM 49.1 °F - 23.2 °F 36% 30.11 in 10.0 mi ENE 5.8 mph - N/A   Clear
5:15 AM 48.6 °F - 23.5 °F 37% 30.12 in 10.0 mi ENE 5.8 mph - N/A   Clear
5:35 AM 49.3 °F - 23.5 °F 36% 30.11 in 10.0 mi ENE 4.6 mph - N/A   Clear
5:55 AM 48.4 °F - 23.9 °F 38% 30.13 in 10.0 mi ENE 5.8 mph - N/A   Clear
6:15 AM 48.6 °F - 24.1 °F 38% 30.13 in 10.0 mi ENE 6.9 mph - N/A   Clear
6:35 AM 48.0 °F - 24.4 °F 40% 30.13 in 10.0 mi ENE 6.9 mph - N/A   Clear
6:55 AM 47.1 °F - 24.8 °F 42% 30.13 in 10.0 mi East 6.9 mph - N/A   Clear
7:15 AM 46.4 °F 42.9 °F 25.2 °F 43% 30.14 in 10.0 mi ENE 6.9 mph - N/A   Clear
7:35 AM 47.1 °F - 25.0 °F 42% 30.14 in 10.0 mi East 5.8 mph - N/A   Clear
7:55 AM 49.1 °F - 25.3 °F 40% 30.14 in 10.0 mi East 5.8 mph - N/A   Clear
8:15 AM 50.9 °F - 25.5 °F 37% 30.14 in 10.0 mi East 4.6 mph - N/A   Clear
8:35 AM 52.3 °F - 25.9 °F 36% 30.15 in 10.0 mi East 5.8 mph - N/A   Clear
8:55 AM 53.1 °F - 26.4 °F 36% 30.15 in 10.0 mi East 4.6 mph - N/A   Clear
9:15 AM 54.3 °F - 27.3 °F 35% 30.16 in 10.0 mi East 5.8 mph - N/A   Clear
9:35 AM 56.8 °F - 28.6 °F 34% 30.17 in 10.0 mi ESE 8.1 mph - N/A   Clear
9:55 AM 58.6 °F - 29.7 °F 33% 30.17 in 10.0 mi SE 6.9 mph - N/A   Clear
10:15 AM 58.3 °F - 29.7 °F 34% 30.16 in 10.0 mi SE 8.1 mph - N/A   Clear
10:35 AM 60.1 °F - 29.5 °F 31% 30.16 in 10.0 mi SSE 5.8 mph - N/A   Clear
10:55 AM 60.8 °F - 28.6 °F 29% 30.16 in 10.0 mi SE 8.1 mph 16.1 mph N/A   Clear
11:15 AM 62.1 °F - 28.9 °F 29% 30.16 in 10.0 mi SSE 9.2 mph - N/A   Clear
11:35 AM 63.1 °F - 29.1 °F 28% 30.15 in 10.0 mi South 8.1 mph 16.1 mph N/A   Clear
11:55 AM 64.2 °F - 29.1 °F 27% 30.14 in 10.0 mi South 8.1 mph 17.3 mph N/A   Clear
12:15 PM 65.1 °F - 29.8 °F 27% 30.13 in 10.0 mi SE 9.2 mph - N/A   Clear
12:35 PM 66.0 °F - 29.8 °F 26% 30.12 in 10.0 mi South 10.4 mph 16.1 mph N/A   Clear
12:55 PM 67.1 °F - 30.6 °F 26% 30.11 in 10.0 mi SSE 8.1 mph 17.3 mph N/A   Clear
1:15 PM 68.5 °F - 31.1 °F 25% 30.10 in 10.0 mi SSW 13.8 mph 18.4 mph N/A   Clear
1:35 PM 69.8 °F - 31.3 °F 24% 30.09 in 10.0 mi South 10.4 mph 19.6 mph N/A   Clear
1:55 PM 70.2 °F - 31.1 °F 24% 30.08 in 10.0 mi SSE 8.1 mph 17.3 mph N/A   Clear
2:15 PM 70.7 °F - 32.0 °F 24% 30.07 in 10.0 mi South 13.8 mph 20.7 mph N/A   Clear
2:35 PM 71.8 °F - 32.2 °F 23% 30.06 in 10.0 mi South 10.4 mph 16.1 mph N/A   Clear
2:55 PM 72.3 °F - 32.4 °F 23% 30.05 in 10.0 mi SSW 10.4 mph 17.3 mph N/A   Clear
3:15 PM 73.0 °F - 32.9 °F 23% 30.04 in 10.0 mi South 10.4 mph - N/A   Clear
3:35 PM 73.4 °F - 34.3 °F 24% 30.03 in 10.0 mi SSW 13.8 mph 19.6 mph N/A   Clear
3:55 PM 73.6 °F - 35.1 °F 25% 30.03 in 10.0 mi South 15.0 mph 20.7 mph N/A   Clear
4:15 PM 73.4 °F - 35.4 °F 25% 30.02 in 10.0 mi South 12.7 mph 23.0 mph N/A   Clear
4:35 PM 73.4 °F - 36.3 °F 26% 30.02 in 10.0 mi South 12.7 mph 19.6 mph N/A   Clear
4:55 PM 72.9 °F - 36.9 °F 27% 30.02 in 10.0 mi South 10.4 mph 16.1 mph N/A   Clear
5:15 PM 72.1 °F - 37.0 °F 28% 30.02 in 10.0 mi South 11.5 mph 17.3 mph N/A   Clear
5:35 PM 71.2 °F - 37.4 °F 29% 30.02 in 10.0 mi South 8.1 mph - N/A   Clear
5:55 PM 70.0 °F - 37.8 °F 31% 30.02 in 10.0 mi South 6.9 mph - N/A   Clear
6:15 PM 68.9 °F - 38.1 °F 32% 30.02 in 10.0 mi South 6.9 mph - N/A   Clear
6:35 PM 68.2 °F - 37.9 °F 33% 30.02 in 10.0 mi South 11.5 mph - N/A   Clear
6:55 PM 67.8 °F - 38.3 °F 34% 30.02 in 10.0 mi South 6.9 mph - N/A   Clear
7:15 PM 66.4 °F - 38.8 °F 36% 30.03 in 10.0 mi SSE 5.8 mph - N/A   Clear
7:35 PM 64.4 °F - 37.8 °F 37% 30.03 in 10.0 mi SSE 8.1 mph - N/A   Clear
7:55 PM 63.9 °F - 38.1 °F 39% 30.04 in 10.0 mi SSE 6.9 mph - N/A   Clear
8:15 PM 62.4 °F - 39.2 °F 42% 30.05 in 10.0 mi SE 4.6 mph - N/A   Clear
8:35 PM 61.5 °F - 40.3 °F 46% 30.06 in 10.0 mi SE 6.9 mph - N/A   Clear
8:55 PM 60.3 °F - 42.1 °F 51% 30.06 in 10.0 mi SE 6.9 mph - N/A   Clear
9:15 PM 59.9 °F - 44.4 °F 57% 30.06 in 10.0 mi SE 8.1 mph - N/A   Clear
9:35 PM 59.9 °F - 45.9 °F 60% 30.06 in 10.0 mi SE 8.1 mph 16.1 mph N/A   Clear
9:55 PM 58.8 °F - 46.8 °F 64% 30.06 in 10.0 mi SE 9.2 mph - N/A   Clear
10:15 PM 58.8 °F - 48.2 °F 68% 30.06 in 10.0 mi SSE 11.5 mph 17.3 mph N/A   Clear
10:35 PM 58.3 °F - 49.1 °F 71% 30.06 in 10.0 mi South 6.9 mph - N/A   Clear
10:55 PM 57.6 °F - 49.3 °F 74% 30.06 in 10.0 mi South 6.9 mph 18.4 mph N/A   Clear
11:15 PM 57.2 °F - 50.0 °F 77% 30.06 in 10.0 mi South 9.2 mph 16.1 mph N/A   Clear
11:35 PM 56.7 °F - 50.2 °F 79% 30.06 in 10.0 mi South 8.1 mph 16.1 mph N/A   Clear
11:55 PM 56.3 °F - 50.7 °F 82% 30.06 in 10.0 mi South 9.2 mph - N/A   Clear